Time,TemperatureF,DewpointF,PressureIn,WindDirection,WindDirectionDegrees,WindSpeedMPH,WindSpeedGustMPH,Humidity,HourlyPrecipIn,Conditions,Clouds,dailyrainin,SoftwareType,DateUTC
2014-12-24 00:08:00,53.7,53.0,29.66,WNW,302,1.0,2.0,97,0.00,,,0.07,weatherlink.com 1.10,2014-12-24 05:08:00,
2014-12-24 00:23:00,53.2,52.0,29.64,ESE,115,0.0,1.0,96,0.00,,,0.07,weatherlink.com 1.10,2014-12-24 05:23:00,
2014-12-24 00:38:00,54.2,53.0,29.66,SSW,213,0.0,3.0,96,0.00,,,0.00,weatherlink.com 1.10,2014-12-24 05:38:00,
2014-12-24 00:53:00,54.1,53.0,29.63,East,83,0.0,1.0,96,0.00,,,0.00,weatherlink.com 1.10,2014-12-24 05:53:00,
2014-12-24 01:08:00,55.5,55.0,29.62,SE,126,0.0,9.0,97,0.00,,,0.00,weatherlink.com 1.10,2014-12-24 06:08:00,
2014-12-24 01:23:00,55.3,54.0,29.63,South,186,0.0,3.0,96,0.00,,,0.00,weatherlink.com 1.10,2014-12-24 06:23:00,
2014-12-24 01:39:00,54.8,54.0,29.64,South,186,0.0,1.0,96,0.00,,,0.00,weatherlink.com 1.10,2014-12-24 06:39:00,
2014-12-24 01:53:00,54.4,53.0,29.64,South,186,0.0,0.0,96,0.00,,,0.00,weatherlink.com 1.10,2014-12-24 06:53:00,
2014-12-24 02:07:00,54.3,53.0,29.62,ENE,69,0.0,1.0,96,0.00,,,0.00,weatherlink.com 1.10,2014-12-24 07:07:00,
2014-12-24 02:22:00,53.7,52.0,29.62,ENE,69,0.0,1.0,95,0.00,,,0.00,weatherlink.com 1.10,2014-12-24 07:22:00,
2014-12-24 02:37:00,53.4,52.0,29.61,ENE,69,0.0,1.0,96,0.00,,,0.00,weatherlink.com 1.10,2014-12-24 07:37:00,
2014-12-24 02:52:00,53.0,52.0,29.61,ENE,69,0.0,1.0,96,0.00,,,0.00,weatherlink.com 1.10,2014-12-24 07:52:00,
2014-12-24 03:07:00,52.5,51.0,29.61,ENE,69,0.0,0.0,95,0.00,,,0.00,weatherlink.com 1.10,2014-12-24 08:07:00,
2014-12-24 03:22:00,52.1,51.0,29.61,ENE,69,1.0,1.0,96,0.00,,,0.00,weatherlink.com 1.10,2014-12-24 08:22:00,
2014-12-24 03:37:00,52.2,51.0,29.59,ENE,69,0.0,1.0,96,0.00,,,0.00,weatherlink.com 1.10,2014-12-24 08:37:00,
2014-12-24 03:52:00,51.8,51.0,29.59,SSW,204,0.0,0.0,96,0.00,,,0.00,weatherlink.com 1.10,2014-12-24 08:52:00,
2014-12-24 04:07:00,51.5,50.0,29.60,SSW,204,0.0,0.0,96,0.00,,,0.00,weatherlink.com 1.10,2014-12-24 09:07:00,
2014-12-24 04:22:00,51.5,50.0,29.60,SSW,204,0.0,0.0,96,0.00,,,0.00,weatherlink.com 1.10,2014-12-24 09:22:00,
2014-12-24 04:37:00,51.9,51.0,29.59,SSW,204,0.0,0.0,96,0.00,,,0.00,weatherlink.com 1.10,2014-12-24 09:37:00,
2014-12-24 04:53:00,51.6,51.0,29.55,SSW,204,0.0,1.0,96,0.00,,,0.00,weatherlink.com 1.10,2014-12-24 09:53:00,
2014-12-24 05:08:00,51.3,50.0,29.55,SSW,204,0.0,1.0,96,0.00,,,0.00,weatherlink.com 1.10,2014-12-24 10:08:00,
2014-12-24 05:23:00,51.0,50.0,29.54,SSW,204,0.0,1.0,96,0.00,,,0.00,weatherlink.com 1.10,2014-12-24 10:23:00,
2014-12-24 05:38:00,50.5,49.0,29.53,SSW,207,0.0,3.0,96,0.00,,,0.00,weatherlink.com 1.10,2014-12-24 10:38:00,
2014-12-24 05:53:00,50.4,49.0,29.55,SSW,207,0.0,1.0,96,0.00,,,0.00,weatherlink.com 1.10,2014-12-24 10:53:00,
2014-12-24 06:08:00,50.9,50.0,29.54,SSW,207,0.0,1.0,96,0.00,,,0.00,weatherlink.com 1.10,2014-12-24 11:08:00,
2014-12-24 06:23:00,50.9,50.0,29.54,SSW,207,0.0,1.0,96,0.00,,,0.00,weatherlink.com 1.10,2014-12-24 11:23:00,
2014-12-24 06:38:00,50.5,49.0,29.54,SSW,207,0.0,0.0,96,0.00,,,0.00,weatherlink.com 1.10,2014-12-24 11:38:00,
2014-12-24 06:53:00,50.6,50.0,29.53,SSW,207,0.0,0.0,96,0.00,,,0.00,weatherlink.com 1.10,2014-12-24 11:53:00,
2014-12-24 07:08:00,50.3,49.0,29.53,SSW,207,0.0,0.0,96,0.00,,,0.00,weatherlink.com 1.10,2014-12-24 12:08:00,
2014-12-24 07:23:00,50.3,49.0,29.54,SSW,207,0.0,0.0,96,0.00,,,0.00,weatherlink.com 1.10,2014-12-24 12:23:00,
2014-12-24 07:38:00,50.5,50.0,29.55,SSW,207,0.0,0.0,97,0.00,,,0.00,weatherlink.com 1.10,2014-12-24 12:38:00,
2014-12-24 07:53:00,50.5,49.0,29.54,SSW,207,0.0,0.0,96,0.00,,,0.00,weatherlink.com 1.10,2014-12-24 12:53:00,
2014-12-24 08:08:00,50.8,50.0,29.53,SSW,207,0.0,0.0,97,0.00,,,0.00,weatherlink.com 1.10,2014-12-24 13:08:00,
2014-12-24 08:23:00,50.6,50.0,29.53,SSW,207,0.0,0.0,97,0.00,,,0.00,weatherlink.com 1.10,2014-12-24 13:23:00,
2014-12-24 08:38:00,50.7,50.0,29.53,SSW,207,0.0,0.0,97,0.00,,,0.00,weatherlink.com 1.10,2014-12-24 13:38:00,
2014-12-24 08:53:00,50.7,50.0,29.52,SSW,207,0.0,0.0,97,0.00,,,0.00,weatherlink.com 1.10,2014-12-24 13:53:00,
2014-12-24 09:08:00,50.6,50.0,29.51,SSW,207,0.0,0.0,97,0.00,,,0.00,weatherlink.com 1.10,2014-12-24 14:08:00,
2014-12-24 09:23:00,50.8,50.0,29.52,SSW,207,0.0,1.0,97,0.00,,,0.00,weatherlink.com 1.10,2014-12-24 14:23:00,
2014-12-24 09:38:00,51.1,50.0,29.51,SSW,207,0.0,1.0,97,0.00,,,0.00,weatherlink.com 1.10,2014-12-24 14:38:00,
2014-12-24 09:53:00,51.1,50.0,29.52,South,187,0.0,4.0,96,0.00,,,0.00,weatherlink.com 1.10,2014-12-24 14:53:00,
2014-12-24 10:08:00,52.2,51.0,29.50,South,185,0.0,4.0,97,0.00,,,0.00,weatherlink.com 1.10,2014-12-24 15:08:00,
2014-12-24 10:23:00,52.7,52.0,29.50,SSE,162,0.0,5.0,97,0.00,,,0.00,weatherlink.com 1.10,2014-12-24 15:23:00,
2014-12-24 10:38:00,53.1,52.0,29.50,SSE,163,1.0,3.0,97,0.00,,,0.00,weatherlink.com 1.10,2014-12-24 15:38:00,
2014-12-24 10:53:00,53.7,53.0,29.49,SSE,152,1.0,5.0,97,0.00,,,0.00,weatherlink.com 1.10,2014-12-24 15:53:00,
2014-12-24 11:08:00,54.0,53.0,29.48,SSE,150,0.0,4.0,97,0.00,,,0.00,weatherlink.com 1.10,2014-12-24 16:08:00,
2014-12-24 11:23:00,54.0,53.0,29.47,ESE,111,0.0,3.0,97,0.00,,,0.00,weatherlink.com 1.10,2014-12-24 16:23:00,
2014-12-24 11:38:00,54.0,53.0,29.45,SSE,152,0.0,3.0,97,0.00,,,0.00,weatherlink.com 1.10,2014-12-24 16:38:00,
2014-12-24 11:53:00,54.0,53.0,29.44,ESE,117,1.0,4.0,97,0.00,,,0.00,weatherlink.com 1.10,2014-12-24 16:53:00,
2014-12-24 12:08:00,54.0,53.0,29.43,SE,142,0.0,2.0,97,0.00,,,0.00,weatherlink.com 1.10,2014-12-24 17:08:00,
2014-12-24 12:23:00,54.1,53.0,29.41,SE,145,0.0,2.0,97,0.01,,,0.01,weatherlink.com 1.10,2014-12-24 17:23:00,
2014-12-24 12:39:00,54.3,54.0,29.40,SE,141,0.0,0.0,97,0.01,,,0.01,weatherlink.com 1.10,2014-12-24 17:39:00,
2014-12-24 12:54:00,54.6,54.0,29.38,East,101,2.0,3.0,97,0.01,,,0.01,weatherlink.com 1.10,2014-12-24 17:54:00,
2014-12-24 13:09:00,55.0,54.0,29.36,East,91,0.0,3.0,97,0.01,,,0.01,weatherlink.com 1.10,2014-12-24 18:09:00,
2014-12-24 13:24:00,54.9,54.0,29.36,South,188,0.0,3.0,97,0.00,,,0.01,weatherlink.com 1.10,2014-12-24 18:24:00,
2014-12-24 13:39:00,54.9,54.0,29.35,South,169,0.0,3.0,97,0.00,,,0.01,weatherlink.com 1.10,2014-12-24 18:39:00,
2014-12-24 13:54:00,55.0,54.0,29.34,SE,142,0.0,3.0,97,0.00,,,0.01,weatherlink.com 1.10,2014-12-24 18:54:00,
2014-12-24 14:09:00,55.2,54.0,29.33,SW,218,0.0,1.0,97,0.02,,,0.03,weatherlink.com 1.10,2014-12-24 19:09:00,
2014-12-24 14:24:00,55.3,54.0,29.32,South,185,1.0,3.0,96,0.02,,,0.03,weatherlink.com 1.10,2014-12-24 19:24:00,
2014-12-24 14:39:00,55.2,54.0,29.33,South,173,1.0,4.0,96,0.06,,,0.07,weatherlink.com 1.10,2014-12-24 19:39:00,
2014-12-24 14:55:00,49.2,47.0,29.41,South,184,8.0,28.0,93,0.07,,,0.08,weatherlink.com 1.10,2014-12-24 19:55:00,
2014-12-24 15:10:00,46.9,45.0,29.39,South,171,8.0,17.0,93,0.07,,,0.10,weatherlink.com 1.10,2014-12-24 20:10:00,
2014-12-24 15:25:00,46.1,44.0,29.39,South,184,6.0,18.0,92,0.08,,,0.11,weatherlink.com 1.10,2014-12-24 20:25:00,
2014-12-24 15:40:00,45.7,44.0,29.42,SW,234,7.0,16.0,92,0.04,,,0.11,weatherlink.com 1.10,2014-12-24 20:40:00,
2014-12-24 15:55:00,45.0,42.0,29.42,SW,217,9.0,24.0,90,0.03,,,0.11,weatherlink.com 1.10,2014-12-24 20:55:00,
2014-12-24 16:10:00,44.6,42.0,29.45,SW,216,10.0,21.0,90,0.02,,,0.12,weatherlink.com 1.10,2014-12-24 21:10:00,
2014-12-24 16:25:00,44.2,42.0,29.45,West,262,7.0,16.0,91,0.02,,,0.13,weatherlink.com 1.10,2014-12-24 21:25:00,
2014-12-24 16:40:00,44.2,42.0,29.50,SSE,157,8.0,21.0,90,0.02,,,0.13,weatherlink.com 1.10,2014-12-24 21:40:00,
2014-12-24 16:55:00,43.2,40.0,29.50,SSW,209,14.0,18.0,89,0.02,,,0.13,weatherlink.com 1.10,2014-12-24 21:55:00,
2014-12-24 17:10:00,42.8,39.0,29.53,South,191,13.0,19.0,87,0.01,,,0.13,weatherlink.com 1.10,2014-12-24 22:10:00,
2014-12-24 17:25:00,42.4,39.0,29.54,SSW,201,4.0,15.0,87,0.00,,,0.13,weatherlink.com 1.10,2014-12-24 22:25:00,
2014-12-24 17:40:00,42.0,39.0,29.55,SSW,194,9.0,15.0,88,0.00,,,0.13,weatherlink.com 1.10,2014-12-24 22:40:00,
2014-12-24 17:55:00,42.0,39.0,29.56,SW,215,5.0,17.0,88,0.00,,,0.13,weatherlink.com 1.10,2014-12-24 22:55:00,
2014-12-24 18:10:00,42.0,39.0,29.58,South,189,4.0,16.0,88,0.00,,,0.13,weatherlink.com 1.10,2014-12-24 23:10:00,
2014-12-24 18:25:00,42.2,39.0,29.59,SSW,192,3.0,15.0,87,0.00,,,0.13,weatherlink.com 1.10,2014-12-24 23:25:00,
2014-12-24 18:40:00,42.3,39.0,29.60,SSW,194,2.0,12.0,87,0.00,,,0.13,weatherlink.com 1.10,2014-12-24 23:40:00,
2014-12-24 18:55:00,42.3,38.0,29.61,SSW,192,10.0,13.0,86,0.00,,,0.13,weatherlink.com 1.10,2014-12-24 23:55:00,
2014-12-24 19:10:00,42.4,39.0,29.62,South,183,4.0,13.0,86,0.00,,,0.13,weatherlink.com 1.10,2014-12-25 00:10:00,
2014-12-24 19:25:00,42.3,38.0,29.63,South,184,2.0,11.0,86,0.00,,,0.13,weatherlink.com 1.10,2014-12-25 00:25:00,
2014-12-24 19:40:00,42.4,38.0,29.64,SW,221,11.0,15.0,85,0.00,,,0.13,weatherlink.com 1.10,2014-12-25 00:40:00,
2014-12-24 19:55:00,42.4,38.0,29.66,WSW,242,2.0,17.0,84,0.00,,,0.13,weatherlink.com 1.10,2014-12-25 00:55:00,
2014-12-24 20:10:00,42.4,38.0,29.66,SSE,148,5.0,15.0,83,0.00,,,0.13,weatherlink.com 1.10,2014-12-25 01:10:00,
2014-12-24 20:25:00,42.0,38.0,29.67,SSW,198,11.0,16.0,84,0.00,,,0.13,weatherlink.com 1.10,2014-12-25 01:25:00,
2014-12-24 20:40:00,42.0,38.0,29.68,SSW,200,8.0,15.0,84,0.00,,,0.13,weatherlink.com 1.10,2014-12-25 01:40:00,
2014-12-24 20:55:00,42.0,37.0,29.68,South,189,3.0,12.0,83,0.00,,,0.13,weatherlink.com 1.10,2014-12-25 01:55:00,
2014-12-24 21:11:00,41.1,37.0,29.69,SSW,204,5.0,18.0,84,0.00,,,0.13,weatherlink.com 1.10,2014-12-25 02:11:00,
2014-12-24 21:26:00,40.7,36.0,29.70,WSW,246,4.0,18.0,84,0.00,,,0.13,weatherlink.com 1.10,2014-12-25 02:26:00,
2014-12-24 21:41:00,40.2,36.0,29.70,South,180,1.0,12.0,85,0.00,,,0.13,weatherlink.com 1.10,2014-12-25 02:41:00,
2014-12-24 21:56:00,40.4,36.0,29.71,SE,144,4.0,10.0,85,0.00,,,0.13,weatherlink.com 1.10,2014-12-25 02:56:00,
2014-12-24 22:11:00,40.6,36.0,29.71,SSW,204,8.0,10.0,84,0.01,,,0.14,weatherlink.com 1.10,2014-12-25 03:11:00,
2014-12-24 22:26:00,40.6,36.0,29.72,SSW,205,3.0,10.0,83,0.01,,,0.14,weatherlink.com 1.10,2014-12-25 03:26:00,
2014-12-24 22:41:00,40.3,36.0,29.73,South,178,6.0,8.0,83,0.01,,,0.14,weatherlink.com 1.10,2014-12-25 03:41:00,
2014-12-24 22:56:00,40.4,35.0,29.73,South,178,0.0,9.0,82,0.01,,,0.14,weatherlink.com 1.10,2014-12-25 03:56:00,
2014-12-24 23:11:00,40.4,35.0,29.73,South,186,2.0,11.0,82,0.00,,,0.14,weatherlink.com 1.10,2014-12-25 04:11:00,
2014-12-24 23:26:00,40.4,36.0,29.73,South,185,5.0,7.0,83,0.00,,,0.14,weatherlink.com 1.10,2014-12-25 04:26:00,